"Period start","avg(HW err(1)/warn(2) (#))","avg(Visibility (m))","avg(Weather code (#))","avg(Precip intensity (mm/h))","min(HW err(1)/warn(2) (#))","max(HW err(1)/warn(2) (#))","std(HW err(1)/warn(2) (#))","med(HW err(1)/warn(2) (#))","min(Visibility (m))","max(Visibility (m))","std(Visibility (m))","med(Visibility (m))","min(Weather code (#))","max(Weather code (#))","std(Weather code (#))","med(Weather code (#))","min(Precip intensity (mm/h))","max(Precip intensity (mm/h))","std(Precip intensity (mm/h))","med(Precip intensity (mm/h))"
2014-10-25 00:00:00,2,8841,77,0.01,2,2,0,2,6234,10388,1262,8886,77,77,0,77,0.00,0.05,0.02,0.00
2014-10-25 00:10:00,2,9643,77,0.00,2,2,0,2,7526,11341,1222,9484,77,77,0,77,0.00,0.00,0.00,0.00
2014-10-25 00:20:00,2,12488,77,0.00,2,2,0,2,10648,14447,1130,12499,77,77,0,77,0.00,0.00,0.00,0.00
2014-10-25 00:30:00,2,12243,77,0.00,2,2,0,2,10628,14635,1311,12214,77,77,0,77,0.00,0.00,0.00,0.00
2014-10-25 00:40:00,2,16818,77,0.00,2,2,0,2,12818,20727,2330,16697,77,77,0,77,0.00,0.00,0.00,0.00
2014-10-25 00:50:00,2,15546,77,0.00,2,2,0,2,13138,18780,1618,15240,77,77,0,77,0.00,0.00,0.00,0.00
2014-10-25 01:00:00,2,20690,77,0.00,2,2,0,2,15169,29496,4617,20086,77,77,0,77,0.00,0.00,0.00,0.00
2014-10-25 01:10:00,2,30672,78,0.00,2,2,0,2,22757,38162,3960,30646,77,78,0,78,0.00,0.00,0.00,0.00
2014-10-25 01:20:00,2,38126,8,0.00,2,2,0,2,31048,44727,4068,38489,0,77,23,0,0.00,0.00,0.00,0.00
2014-10-25 01:30:00,2,36567,0,0.00,2,2,0,2,27392,45601,5455,37758,0,0,0,0,0.00,0.00,0.00,0.00
2014-10-25 01:40:00,2,21517,38,0.00,2,2,0,2,16657,26328,3004,21708,0,78,38,36,0.00,0.00,0.00,0.00
2014-10-25 01:50:00,2,15004,78,0.02,2,2,0,2,11425,17555,1883,15355,78,78,0,78,0.00,0.05,0.02,0.00
2014-10-25 02:00:00,2,11972,78,0.02,2,2,0,2,10608,14362,1071,12106,77,78,0,78,0.00,0.05,0.02,0.00
2014-10-25 02:10:00,2,9386,77,0.04,2,2,0,2,8199,10357,761,9474,77,78,0,77,0.00,0.10,0.03,0.05
2014-10-25 02:20:00,2,11253,78,0.01,2,2,0,2,9510,12804,830,11400,78,78,0,78,0.00,0.05,0.02,0.00
2014-10-25 02:30:00,2,11257,78,0.01,2,2,0,2,10052,12858,888,11180,78,78,0,78,0.00,0.05,0.02,0.00
2014-10-25 02:40:00,2,10915,74,0.05,2,2,0,2,9105,12335,920,10882,71,78,3,74,0.00,0.20,0.05,0.05
2014-10-25 02:50:00,2,11903,74,0.04,2,2,0,2,10220,13456,904,11696,71,78,3,74,0.00,0.10,0.03,0.05
2014-10-25 03:00:00,2,11901,71,0.07,2,2,0,2,9723,14598,1815,11616,71,71,0,71,0.00,0.25,0.08,0.05
2014-10-25 03:10:00,2,11447,71,0.11,2,2,0,2,9880,13613,1032,11070,71,71,0,71,0.00,0.40,0.11,0.05
2014-10-25 03:20:00,2,14952,73,0.00,2,2,0,2,11778,17929,1939,15286,71,78,3,71,0.00,0.00,0.00,0.00
2014-10-25 03:30:00,2,18562,78,0.00,2,2,0,2,16017,22494,2055,17938,78,78,0,78,0.00,0.00,0.00,0.00
2014-10-25 03:40:00,2,20909,78,0.02,2,2,0,2,16165,27816,3176,20285,77,78,0,78,0.00,0.05,0.02,0.00
2014-10-25 03:50:00,2,23175,73,0.04,2,2,0,2,13679,29962,5809,24053,71,77,3,71,0.00,0.25,0.08,0.00
2014-10-25 04:00:00,2,26255,74,0.03,2,2,0,2,17862,36699,5753,28002,71,77,3,74,0.00,0.15,0.05,0.00
2014-10-25 04:10:00,2,32110,72,0.06,2,2,0,2,11144,42624,9837,35018,71,77,2,71,0.00,0.35,0.12,0.00
2014-10-25 04:20:00,2,47024,62,0.00,2,2,0,2,39277,50000,3525,48336,0,78,31,78,0.00,0.00,0.00,0.00
2014-10-25 04:30:00,2,47735,0,0.00,2,2,0,2,41803,50000,2984,49738,0,0,0,0,0.00,0.00,0.00,0.00
2014-10-25 04:40:00,2,48352,0,0.00,2,2,0,2,44330,50000,2006,49238,0,0,0,0,0.00,0.00,0.00,0.00
2014-10-25 04:50:00,2,47548,0,0.00,2,2,0,2,40801,50000,3057,48940,0,0,0,0,0.00,0.00,0.00,0.00
2014-10-25 05:00:00,2,49109,0,0.00,2,2,0,2,42881,50000,2126,50000,0,0,0,0,0.00,0.00,0.00,0.00
2014-10-25 05:10:00,2,49935,0,0.00,2,2,0,2,49635,50000,119,50000,0,0,0,0,0.00,0.00,0.00,0.00
2014-10-25 05:20:00,2,48334,0,0.00,2,2,0,2,42903,50000,2622,50000,0,0,0,0,0.00,0.00,0.00,0.00
2014-10-25 05:30:00,2,42216,0,0.00,2,2,0,2,18998,50000,11774,50000,0,0,0,0,0.00,0.00,0.00,0.00
2014-10-25 05:40:00,2,48531,0,0.00,2,2,0,2,43986,50000,1851,49244,0,0,0,0,0.00,0.00,0.00,0.00
2014-10-25 05:50:00,2,48254,0,0.00,2,2,0,2,43439,50000,2424,49958,0,0,0,0,0.00,0.00,0.00,0.00
2014-10-25 06:00:00,2,49157,0,0.00,2,2,0,2,45608,50000,1332,49712,0,0,0,0,0.00,0.00,0.00,0.00
2014-10-25 06:10:00,2,49506,0,0.00,2,2,0,2,47769,50000,805,50000,0,0,0,0,0.00,0.00,0.00,0.00
2014-10-25 06:20:00,2,47034,0,0.00,2,2,0,2,37607,50000,4176,49723,0,0,0,0,0.00,0.00,0.00,0.00
2014-10-25 06:30:00,2,49482,0,0.00,2,2,0,2,46882,50000,1062,50000,0,0,0,0,0.00,0.00,0.00,0.00
2014-10-25 06:40:00,2,49874,0,0.00,2,2,0,2,48857,50000,340,50000,0,0,0,0,0.00,0.00,0.00,0.00
2014-10-25 06:50:00,2,48099,0,0.00,2,2,0,2,44749,50000,2205,49574,0,0,0,0,0.00,0.00,0.00,0.00
2014-10-25 07:00:00,2,39059,60,0.03,2,2,0,2,25376,50000,8356,40373,0,78,30,74,0.00,0.25,0.07,0.00
2014-10-25 07:10:00,2,41047,58,0.00,2,2,0,2,29101,50000,6736,41553,0,77,29,71,0.00,0.00,0.00,0.00
2014-10-25 07:20:00,2,48088,0,0.00,2,2,0,2,41272,50000,2970,49970,0,0,0,0,0.00,0.00,0.00,0.00
2014-10-25 07:30:00,2,49984,0,0.00,2,2,0,2,49843,50000,47,50000,0,0,0,0,0.00,0.00,0.00,0.00
2014-10-25 07:40:00,2,49062,0,0.00,2,2,0,2,43311,50000,1970,50000,0,0,0,0,0.00,0.00,0.00,0.00
2014-10-25 07:50:00,2,48885,0,0.00,2,2,0,2,45999,50000,1467,49896,0,0,0,0,0.00,0.00,0.00,0.00
2014-10-25 08:00:00,2,49797,0,0.00,2,2,0,2,47973,50000,608,50000,0,0,0,0,0.00,0.00,0.00,0.00
2014-10-25 08:10:00,2,47898,0,0.00,2,2,0,2,42105,50000,2415,48452,0,0,0,0,0.00,0.00,0.00,0.00
2014-10-25 08:20:00,2,49444,0,0.00,2,2,0,2,46113,50000,1193,50000,0,0,0,0,0.00,0.00,0.00,0.00
2014-10-25 08:30:00,2,43512,22,0.00,2,2,0,2,33016,50000,6815,47007,0,77,33,0,0.00,0.00,0.00,0.00
2014-10-25 08:40:00,2,46205,8,0.00,2,2,0,2,36359,50000,5035,49354,0,77,23,0,0.00,0.00,0.00,0.00
2014-10-25 08:50:00,2,46287,0,0.00,2,2,0,2,34283,50000,5987,49548,0,0,0,0,0.00,0.00,0.00,0.00
2014-10-25 09:00:00,2,47662,0,0.00,2,2,0,2,41459,50000,2840,49071,0,0,0,0,0.00,0.00,0.00,0.00
2014-10-25 09:10:00,2,37580,14,0.01,2,2,0,2,13227,50000,13278,42562,0,71,28,0,0.00,0.15,0.05,0.00
2014-10-25 09:20:00,2,46150,21,0.00,2,2,0,2,24104,50000,7864,49652,0,71,33,0,0.00,0.00,0.00,0.00
2014-10-25 09:30:00,2,40912,36,0.01,2,2,0,2,27131,50000,9012,44144,0,71,36,36,0.00,0.05,0.02,0.00
2014-10-25 09:40:00,2,37188,69,0.02,2,2,0,2,21920,50000,10402,40569,0,78,23,78,0.00,0.10,0.03,0.00
2014-10-25 09:50:00,2,42936,14,0.01,2,2,0,2,21846,50000,10502,49990,0,71,28,0,0.00,0.10,0.03,0.00
2014-10-25 10:00:00,2,42487,76,0.00,2,2,0,2,32712,50000,6527,45598,71,78,3,77,0.00,0.00,0.00,0.00
2014-10-25 10:10:00,2,41942,70,0.00,2,2,0,2,31750,50000,7416,41511,0,78,23,78,0.00,0.00,0.00,0.00
2014-10-25 10:20:00,2,38292,61,0.01,2,2,0,2,12064,50000,12167,41808,0,78,31,77,0.00,0.05,0.02,0.00
2014-10-25 10:30:00,2,27288,74,0.03,2,2,0,2,18887,44789,8774,22394,71,78,3,74,0.00,0.10,0.03,0.00
2014-10-25 10:40:00,2,10332,71,0.18,2,2,0,2,3211,16820,4001,10126,71,71,0,71,0.00,0.90,0.27,0.08
2014-10-25 10:50:00,2,12813,71,0.12,2,2,0,2,6934,18163,3783,12360,71,71,0,71,0.00,0.40,0.13,0.05
2014-10-25 11:00:00,2,12840,71,0.20,2,2,0,2,8717,20239,3656,11998,71,71,0,71,0.00,0.50,0.17,0.15
2014-10-25 11:10:00,2,25085,73,0.04,2,2,0,2,10053,39009,9033,26950,71,77,3,71,0.00,0.20,0.07,0.00
2014-10-25 11:20:00,2,23203,73,0.04,2,2,0,2,14720,36722,6921,21795,71,77,3,71,0.00,0.20,0.07,0.00
2014-10-25 11:30:00,2,14468,71,0.15,2,2,0,2,6592,25061,5313,13877,71,71,0,71,0.00,0.65,0.18,0.10
2014-10-25 11:40:00,2,9011,71,0.27,2,2,0,2,4881,14246,3168,8654,71,71,0,71,0.05,1.00,0.27,0.17
2014-10-25 11:50:00,2,5709,71,0.59,2,2,0,2,1852,19173,4895,4100,71,71,0,71,0.00,1.75,0.48,0.48
2014-10-25 12:00:00,2,4328,71,0.48,2,2,0,2,1836,9567,2096,4272,71,71,0,71,0.05,1.60,0.43,0.38
2014-10-25 12:10:00,2,12559,71,0.23,2,2,0,2,4828,28653,6976,10660,71,71,0,71,0.00,0.60,0.21,0.17
2014-10-25 12:20:00,2,34023,73,0.03,2,2,0,2,14977,49394,11240,38048,71,77,3,71,0.00,0.15,0.05,0.00
2014-10-25 12:30:00,2,43264,21,0.00,2,2,0,2,28524,50000,6294,44522,0,71,33,0,0.00,0.00,0.00,0.00
2014-10-25 12:40:00,2,46092,0,0.00,2,2,0,2,35007,50000,4939,48850,0,0,0,0,0.00,0.00,0.00,0.00
2014-10-25 12:50:00,2,46184,0,0.00,2,2,0,2,37492,50000,4277,47956,0,0,0,0,0.00,0.00,0.00,0.00
2014-10-25 13:00:00,2,46177,0,0.00,2,2,0,2,34180,50000,5730,49608,0,0,0,0,0.00,0.00,0.00,0.00
2014-10-25 13:10:00,2,34939,53,0.00,2,2,0,2,25490,40616,4979,36644,0,78,35,74,0.00,0.00,0.00,0.00
2014-10-25 13:20:00,2,22326,74,0.07,2,2,0,2,8767,38305,9841,19686,71,78,3,71,0.00,0.25,0.08,0.03
2014-10-25 13:30:00,2,30607,72,0.03,2,2,0,2,10695,48667,10979,30902,71,77,2,71,0.00,0.15,0.05,0.00
2014-10-25 13:40:00,2,26382,75,0.06,2,2,0,2,7235,44694,12507,24968,71,77,3,77,0.00,0.45,0.13,0.03
2014-10-25 13:50:00,2,20939,77,0.07,2,2,0,2,4789,35829,10811,19594,77,78,0,77,0.00,0.40,0.11,0.05
2014-10-25 14:00:00,2,12080,71,0.14,2,2,0,2,3667,24178,6297,11830,71,71,0,71,0.00,0.55,0.17,0.05
2014-10-25 14:10:00,2,13534,71,0.08,2,2,0,2,6521,22298,4194,14446,71,71,0,71,0.00,0.25,0.07,0.05
2014-10-25 14:20:00,2,25614,73,0.04,2,2,0,2,8778,42352,11323,21500,71,77,3,71,0.00,0.20,0.06,0.00
2014-10-25 14:30:00,2,10688,72,0.10,2,2,0,2,8241,13916,1974,10690,71,77,2,71,0.00,0.25,0.06,0.10
2014-10-25 14:40:00,2,5667,71,0.49,2,2,0,2,3190,7887,1596,5882,71,71,0,71,0.10,0.95,0.31,0.40
2014-10-25 14:50:00,2,4028,71,0.71,2,2,0,2,2771,5830,1061,3580,71,71,0,71,0.10,1.05,0.35,0.88
2014-10-25 15:00:00,2,5341,71,0.75,2,2,0,2,2424,11725,2802,4572,71,71,0,71,0.15,1.35,0.38,0.70
2014-10-25 15:10:00,2,5688,71,0.54,2,2,0,2,2706,9044,1853,5456,71,71,0,71,0.05,1.85,0.52,0.42
2014-10-25 15:20:00,2,5059,71,0.54,2,2,0,2,2981,9099,2332,3873,71,71,0,71,0.05,1.05,0.27,0.55
2014-10-25 15:30:00,2,9555,71,0.10,2,2,0,2,5382,15073,2943,8947,71,71,0,71,0.05,0.30,0.08,0.05
2014-10-25 15:40:00,2,3897,71,0.59,2,2,0,2,2161,7779,1682,3319,71,71,0,71,0.05,1.35,0.42,0.45
2014-10-25 15:50:00,2,4817,71,0.45,2,2,0,2,1472,8587,2255,4896,71,71,0,71,0.10,0.95,0.26,0.42
2014-10-25 16:00:00,2,2853,71,0.93,2,2,0,2,1730,4311,805,2736,71,71,0,71,0.30,3.05,0.76,0.65
2014-10-25 16:10:00,2,10246,71,0.09,2,2,0,2,4701,17737,5291,7809,71,71,0,71,0.00,0.35,0.11,0.05
2014-10-25 16:20:00,2,15194,71,0.11,2,2,0,2,5500,28621,8253,11701,71,71,0,71,0.00,0.50,0.14,0.08
2014-10-25 16:30:00,2,11538,71,0.15,2,2,0,2,5060,26156,5736,10554,71,71,0,71,0.00,0.45,0.14,0.12
2014-10-25 16:40:00,2,10320,71,0.12,2,2,0,2,3226,17163,4282,9430,71,71,0,71,0.00,0.55,0.16,0.08
2014-10-25 16:50:00,2,22968,71,0.01,2,2,0,2,12676,37714,7824,21931,71,71,0,71,0.00,0.05,0.02,0.00
2014-10-25 17:00:00,2,27676,70,0.00,2,2,0,2,19209,37359,6138,26585,41,78,15,78,0.00,0.00,0.00,0.00
2014-10-25 17:10:00,2,29179,62,0.01,2,2,0,2,13222,45529,8821,29243,0,78,31,78,0.00,0.05,0.02,0.00
2014-10-25 17:20:00,2,27214,76,0.02,2,2,0,2,9908,42532,11868,30713,71,78,3,78,0.00,0.10,0.03,0.00
2014-10-25 17:30:00,2,40381,70,0.00,2,2,0,2,33351,48249,4614,40644,0,78,23,78,0.00,0.00,0.00,0.00
2014-10-25 17:40:00,2,47721,0,0.00,2,2,0,2,38949,50000,3761,50000,0,0,0,0,0.00,0.00,0.00,0.00
2014-10-25 17:50:00,2,43911,0,0.00,2,2,0,2,17686,50000,9928,48582,0,0,0,0,0.00,0.00,0.00,0.00
2014-10-25 18:00:00,2,41511,30,0.00,2,2,0,2,30042,50000,6473,41502,0,77,36,0,0.00,0.00,0.00,0.00
2014-10-25 18:10:00,2,41130,62,0.00,2,2,0,2,24173,50000,8272,43728,0,78,31,78,0.00,0.00,0.00,0.00
2014-10-25 18:20:00,2,42800,0,0.00,2,2,0,2,31357,50000,5931,43764,0,0,0,0,0.00,0.00,0.00,0.00
2014-10-25 18:30:00,2,29674,64,0.01,2,2,0,2,15486,41203,9367,32376,0,71,21,71,0.00,0.05,0.02,0.00
2014-10-25 18:40:00,2,36579,33,0.00,2,2,0,2,10612,50000,11363,40799,0,78,34,20,0.00,0.00,0.00,0.00
2014-10-25 18:50:00,2,46149,16,0.00,2,2,0,2,40472,50000,3547,46740,0,78,31,0,0.00,0.00,0.00,0.00
2014-10-25 19:00:00,2,34278,53,0.01,2,2,0,2,26703,44601,5884,32820,0,77,35,74,0.00,0.05,0.02,0.00
2014-10-25 19:10:00,2,39314,69,0.00,2,2,0,2,31632,46449,4658,41140,0,78,23,78,0.00,0.00,0.00,0.00
2014-10-25 19:20:00,2,36772,76,0.02,2,2,0,2,19938,47556,7736,37200,71,78,3,78,0.00,0.20,0.06,0.00
2014-10-25 19:30:00,2,41678,7,0.00,2,2,0,2,22096,50000,8175,44242,0,71,21,0,0.00,0.00,0.00,0.00
2014-10-25 19:40:00,2,36173,45,0.05,2,2,0,2,14947,50000,12458,38340,0,78,37,71,0.00,0.40,0.12,0.00
2014-10-25 19:50:00,2,40268,0,0.00,2,2,0,2,31334,49520,6859,39406,0,0,0,0,0.00,0.00,0.00,0.00
2014-10-25 20:00:00,2,28376,36,0.02,2,2,0,2,14421,42725,9270,29668,0,71,36,36,0.00,0.10,0.03,0.00
2014-10-25 20:10:00,2,38614,22,0.00,2,2,0,2,19166,50000,11201,40819,0,77,34,0,0.00,0.00,0.00,0.00
2014-10-25 20:20:00,2,43819,0,0.00,2,2,0,2,16729,50000,9761,47756,0,0,0,0,0.00,0.00,0.00,0.00
2014-10-25 20:30:00,2,44575,0,0.00,2,2,0,2,29614,49997,5860,46812,0,0,0,0,0.00,0.00,0.00,0.00
2014-10-25 20:40:00,2,47916,0,0.00,2,2,0,2,42431,50000,2333,48286,0,0,0,0,0.00,0.00,0.00,0.00
2014-10-25 20:50:00,2,48037,0,0.00,2,2,0,2,30657,50000,5794,50000,0,0,0,0,0.00,0.00,0.00,0.00
2014-10-25 21:00:00,2,38260,45,0.00,2,2,0,2,25492,50000,6716,39166,0,78,37,71,0.00,0.00,0.00,0.00
2014-10-25 21:10:00,2,37861,21,0.00,2,2,0,2,14763,47994,9858,42406,0,71,33,0,0.00,0.00,0.00,0.00
2014-10-25 21:20:00,2,48891,7,0.00,2,2,0,2,47184,50000,991,48944,0,71,21,0,0.00,0.00,0.00,0.00
2014-10-25 21:30:00,2,45140,0,0.00,2,2,0,2,30617,50000,7397,49802,0,0,0,0,0.00,0.00,0.00,0.00
2014-10-25 21:40:00,2,35629,21,0.01,2,2,0,2,14786,46067,10592,39608,0,71,33,0,0.00,0.15,0.05,0.00
2014-10-25 21:50:00,2,47507,0,0.00,2,2,0,2,42543,50000,2624,48924,0,0,0,0,0.00,0.00,0.00,0.00
2014-10-25 22:00:00,2,43123,0,0.00,2,2,0,2,21854,50000,10416,50000,0,0,0,0,0.00,0.00,0.00,0.00
2014-10-25 22:10:00,2,46798,0,0.00,2,2,0,2,36667,50000,4101,48284,0,0,0,0,0.00,0.00,0.00,0.00
2014-10-25 22:20:00,2,34935,21,0.01,2,2,0,2,9355,46410,11379,40668,0,71,33,0,0.00,0.10,0.03,0.00
2014-10-25 22:30:00,2,43608,0,0.00,2,2,0,2,22646,50000,9212,49908,0,0,0,0,0.00,0.00,0.00,0.00
2014-10-25 22:40:00,2,48752,0,0.00,2,2,0,2,39459,50000,3151,50000,0,0,0,0,0.00,0.00,0.00,0.00
2014-10-25 22:50:00,2,47461,0,0.00,2,2,0,2,42353,50000,2719,48522,0,0,0,0,0.00,0.00,0.00,0.00
2014-10-25 23:00:00,2,48037,0,0.00,2,2,0,2,45590,50000,1551,47984,0,0,0,0,0.00,0.00,0.00,0.00
2014-10-25 23:10:00,2,48406,0,0.00,2,2,0,2,42333,50000,2634,49975,0,0,0,0,0.00,0.00,0.00,0.00
2014-10-25 23:20:00,2,49362,0,0.00,2,2,0,2,43616,50000,1915,50000,0,0,0,0,0.00,0.00,0.00,0.00
2014-10-25 23:30:00,2,40731,7,0.00,2,2,0,2,20512,50000,9541,42972,0,71,21,0,0.00,0.00,0.00,0.00
2014-10-25 23:40:00,2,44208,38,0.01,2,2,0,2,28984,50000,6804,46948,0,78,38,36,0.00,0.05,0.02,0.00
2014-10-25 23:50:00,2,47186,0,0.00,2,2,0,2,40396,50000,3657,49996,0,0,0,0,0.00,0.00,0.00,0.00
